FW7473 Weather Reports


Display with metric or nautical units.
time (UTC)temp
F
wind
direction
speed
MPH
gust
MPH
rain 1hr
in
rain 24hr
in
rain mn
in
humidity
%
barometer
mb
20260506214850 68 84 3.0 5.0 0.00 0.00 0.00 81 1012.7
20260506214347 69 41 3.0 5.0 0.00 0.00 0.00 79 1012.6
20260506213845 69 88 3.0 5.0 0.00 0.00 0.00 80 1012.6
20260506213342 70 117 2.0 3.0 0.00 0.00 0.00 79 1012.6
20260506212839 70 118 2.0 3.0 0.00 0.00 0.00 79 1012.3
20260506212335 70 93 5.0 7.0 0.00 0.00 0.00 79 1012.3
20260506211830 70 95 2.0 2.0 0.00 0.00 0.00 80 1012.2
20260506211326 70 67 3.0 5.0 0.00 0.00 0.00 81 1012.3
20260506210824 71 81 4.0 5.0 0.00 0.00 0.00 79 1012.4
20260506210321 72 98 3.0 3.0 0.00 0.00 0.00 78 1012.3
20260506205818 72 98 2.0 3.0 0.00 0.00 0.00 79 1012.4
20260506205313 73 85 4.0 9.0 0.00 0.00 0.00 79 1012.5
20260506204804 73 106 6.0 8.0 0.00 0.00 0.00 79 1012.5
20260506204302 73 111 2.0 2.0 0.00 0.00 0.00 80 1012.4
20260506203759 73 99 2.0 3.0 0.00 0.00 0.00 81 1012.4
20260506203257 73 103 3.0 3.0 0.00 0.00 0.00 80 1012.6
20260506202754 73 126 2.0 2.0 0.00 0.00 0.00 81 1012.6
20260506202251 73 105 2.0 2.0 0.00 0.00 0.00 81 1012.7
20260506201747 73 113 2.0 2.0 0.00 0.00 0.00 81 1012.7
20260506201244 74 124 3.0 5.0 0.00 0.00 0.00 81 1012.7
20260506200741 73 127 2.0 3.0 0.00 0.00 0.00 82 1012.4
20260506200237 72 152 2.0 2.0 0.00 0.00 0.00 83 1012.3
20260506195733 73 129 3.0 3.0 0.00 0.00 0.00 83 1012.5
20260506195230 73 106 4.0 6.0 0.00 0.00 0.00 83 1012.4
20260506194728 74 109 2.0 2.0 0.00 0.00 0.00 83 1012.1
20260506194224 75 87 3.0 3.0 0.00 0.00 0.00 83 1012.3
20260506193722 77 118 3.0 6.0 0.00 0.00 0.00 82 1012.0
20260506193218 78 113 1.0 2.0 0.00 0.00 0.00 80 1011.8
20260506192715 79 119 2.0 2.0 0.00 0.00 0.00 79 1011.9
20260506192212 80 118 1.0 1.0 0.00 0.00 0.00 79 1012.0
20260506191708 80 130 1.0 2.0 0.00 0.00 0.00 80 1012.1
20260506191204 79 123 1.0 2.0 0.00 0.00 0.00 80 1012.0
20260506190702 78 124 2.0 3.0 0.00 0.00 0.00 81 1012.3
20260506190159 79 122 0.0 1.0 0.00 0.00 0.00 81 1012.3
20260506185656 79 122 1.0 1.0 0.00 0.00 0.00 80 1012.3
20260506185152 78 122 1.0 1.0 0.00 0.00 0.00 81 1012.4
20260506184650 79 124 2.0 2.0 0.00 0.00 0.00 80 1012.4
20260506184147 78 119 3.0 3.0 0.00 0.00 0.00 79 1012.1
20260506183643 79 119 2.0 2.0 0.00 0.00 0.00 79 1012.1
20260506183139 78 132 1.0 1.0 0.00 0.00 0.00 79 1012.4
20260506182637 76 116 4.0 6.0 0.00 0.00 0.00 81 1012.4
20260506182134 75 128 2.0 3.0 0.00 0.00 0.00 82 1012.6
20260506181632 75 96 3.0 3.0 0.00 0.00 0.00 83 1012.5
20260506181129 76 110 2.0 3.0 0.00 0.00 0.00 82 1012.2
20260506180626 75 123 1.0 1.0 0.00 0.00 0.00 82 1012.3
20260506180122 75 106 3.0 3.0 0.00 0.00 0.00 83 1012.4
20260506175618 75 126 1.0 1.0 0.00 0.00 0.00 82 1012.4
20260506175114 74 125 2.0 2.0 0.00 0.00 0.00 83 1012.5
20260506174614 73 142 1.0 1.0 0.00 0.00 0.00 84 1012.4
20260506174110 73 138 0.0 1.0 0.00 0.00 0.00 84 1012.6
20260506173608 72 137 1.0 1.0 0.00 0.00 0.00 86 1012.4
20260506173104 72 136 1.0 3.0 0.00 0.00 0.00 86 1012.4
20260506172602 72 139 1.0 1.0 0.00 0.00 0.00 85 1012.5
20260506172057 71 119 4.0 6.0 0.00 0.00 0.00 86 1012.6
20260506171555 71 153 1.0 2.0 0.00 0.00 0.00 86 1012.7
20260506171053 71 118 1.0 2.0 0.00 0.00 0.00 87 1012.6
20260506170550 71 144 1.0 2.0 0.00 0.00 0.00 87 1012.6
20260506170047 71 120 3.0 5.0 0.00 0.00 0.00 88 1012.5
20260506165546 70 125 4.0 7.0 0.00 0.00 0.00 88 1012.5
20260506165041 69 139 1.0 1.0 0.00 0.00 0.00 89 1012.9
20260506164538 68 105 2.0 5.0 0.00 0.00 0.00 92 1012.9
20260506164036 66 97 2.0 2.0 0.00 0.00 0.00 93 1013.0
20260506163532 66 118 1.0 2.0 0.00 0.00 0.00 93 1013.5
20260506163027 67 24 3.0 3.0 0.00 0.00 0.00 93 1013.5
20260506162524 67 112 4.0 7.0 0.00 0.00 0.00 93 1013.3
20260506162021 68 11 4.0 6.0 0.00 0.00 0.00 92 1013.7
20260506161519 70 84 3.0 5.0 0.00 0.00 0.00 91 1013.8
20260506161015 72 357 4.0 5.0 0.00 0.00 0.00 89 1013.5
20260506160513 77 143 2.0 3.0 0.00 0.00 0.00 88 1013.3
20260506160010 78 137 0.0 0.0 0.00 0.00 0.00 93 1012.8
20260506155508 77 151 0.0 0.0 0.00 0.00 0.00 93 1012.8
20260506153640 77 142 0.0 0.0 0.00 0.00 0.00 93 1012.7
20260506153137 77 141 0.0 0.0 0.00 0.00 0.00 93 1012.6
20260506152634 77 142 0.0 0.0 0.00 0.00 0.00 93 1012.5
20260506152132 77 141 0.0 0.0 0.00 0.00 0.00 93 1012.1
20260506151630 77 143 0.0 0.0 0.00 0.00 0.00 93 1012.3
20260506151127 77 151 0.0 0.0 0.00 0.00 0.00 93 1012.0
20260506150624 77 153 0.0 0.0 0.00 0.00 0.00 93 1012.0
20260506150120 77 153 0.0 0.0 0.00 0.00 0.00 93 1011.8
20260506145618 77 148 0.0 0.0 0.00 0.00 0.00 94 1011.8
20260506145114 77 146 0.0 0.0 0.00 0.00 0.00 94 1011.9
20260506144611 77 151 0.0 0.0 0.00 0.00 0.00 94 1011.7
20260506144108 76 151 0.0 0.0 0.00 0.00 0.00 94 1011.8
20260506143606 76 149 0.0 1.0 0.00 0.00 0.00 94 1011.8
20260506143104 76 144 0.0 1.0 0.00 0.00 0.00 94 1011.3
20260506142602 76 151 2.0 2.0 0.00 0.00 0.00 94 1011.2
20260506142100 76 162 0.0 1.0 0.00 0.00 0.00 95 1011.1
20260506141557 75 149 0.0 0.0 0.00 0.00 0.00 95 1011.2
20260506141055 75 153 0.0 0.0 0.00 0.00 0.00 95 1011.4
20260506140552 75 153 0.0 0.0 0.00 0.00 0.00 95 1011.8
20260506140050 75 153 0.0 0.0 0.00 0.00 0.00 96 1011.4
20260506135546 75 153 0.0 0.0 0.00 0.00 0.00 96 1011.4
20260506135042 75 148 0.0 0.0 0.00 0.00 0.00 97 1011.1
20260506134539 75 152 0.0 1.0 0.00 0.00 0.00 97 1010.6
20260506134035 75 143 0.0 0.0 0.00 0.00 0.00 97 1010.7
20260506133532 75 142 0.0 0.0 0.00 0.00 0.00 97 1010.9
20260506133029 75 156 0.0 0.0 0.00 0.00 0.00 97 1010.5
20260506132526 75 151 0.0 1.0 0.00 0.00 0.00 98 1010.8
20260506132024 74 148 0.0 0.0 0.00 0.00 0.00 98 1010.6
20260506131521 74 149 0.0 0.0 0.00 0.00 0.00 98 1010.9
20260506131017 74 145 0.0 0.0 0.00 0.00 0.00 98 1010.7
20260506130514 74 146 0.0 1.0 0.00 0.00 0.00 98 1010.5
20260506130012 74 149 0.0 0.0 0.00 0.00 0.00 98 1010.5
20260506125510 74 144 0.0 1.0 0.00 0.00 0.00 98 1010.3
20260506125007 74 146 0.0 0.0 0.00 0.00 0.00 98 1010.2
20260506124505 74 147 0.0 0.0 0.00 0.00 0.00 98 1010.4
20260506124003 74 151 0.0 0.0 0.00 0.00 0.00 98 1010.4
20260506123500 74 151 0.0 0.0 0.00 0.00 0.00 98 1010.4
20260506122958 74 148 0.0 0.0 0.00 0.00 0.00 98 1010.4
20260506122454 74 146 0.0 0.0 0.00 0.00 0.00 98 1010.3
20260506121953 74 152 0.0 0.0 0.00 0.00 0.00 98 1010.4
20260506121450 74 143 0.0 0.0 0.00 0.00 0.00 98 1010.6
20260506120946 74 149 0.0 0.0 0.00 0.00 0.00 98 1010.4
20260506120444 74 152 0.0 0.0 0.00 0.00 0.00 97 1010.4
20260506115941 74 149 0.0 0.0 0.00 0.00 0.00 97 1010.3
20260506115439 74 154 0.0 0.0 0.00 0.00 0.00 97 1010.4
20260506114937 74 148 0.0 0.0 0.00 0.00 0.00 97 1010.3
20260506114434 74 148 0.0 0.0 0.00 0.00 0.00 97 1010.4
20260506113933 74 148 0.0 0.0 0.00 0.00 0.00 97 1010.4
20260506113430 74 148 0.0 0.0 0.00 0.00 0.00 97 1010.4
20260506112926 74 150 0.0 0.0 0.00 0.00 0.00 97 1010.3
20260506112424 74 151 0.0 0.0 0.00 0.00 0.00 97 1010.4
20260506111921 74 148 0.0 0.0 0.00 0.00 0.00 97 1010.2
20260506111419 74 143 0.0 0.0 0.00 0.00 0.00 97 1010.2
20260506110916 74 148 0.0 0.0 0.00 0.00 0.00 97 1010.2
20260506110414 74 153 0.0 0.0 0.00 0.00 0.00 97 1010.1
20260506105910 74 152 0.0 0.0 0.00 0.00 0.00 97 1010.2
20260506105406 74 141 0.0 0.0 0.00 0.00 0.00 97 1010.2
20260506104904 74 151 0.0 0.0 0.00 0.00 0.00 97 1010.0
20260506104402 74 151 0.0 0.0 0.00 0.00 0.00 97 1009.8
20260506103859 74 166 1.0 1.0 0.00 0.00 0.00 97 1009.8
20260506103357 74 156 3.0 3.0 0.00 0.00 0.00 97 1009.4
20260506102854 74 150 0.0 0.0 0.00 0.00 0.00 97 1009.5
20260506102352 74 151 1.0 1.0 0.00 0.00 0.00 97 1009.8
20260506101848 74 153 0.0 1.0 0.00 0.00 0.00 97 1009.4
20260506101344 74 145 0.0 1.0 0.00 0.00 0.00 97 1009.3
20260506100843 74 152 0.0 0.0 0.00 0.00 0.00 97 1009.4
20260506100341 74 159 1.0 1.0 0.00 0.00 0.00 97 1009.4
20260506095839 74 151 0.0 0.0 0.00 0.00 0.00 97 1009.5
20260506095336 74 158 1.0 1.0 0.00 0.00 0.00 97 1009.3
20260506094832 74 151 1.0 1.0 0.00 0.00 0.00 97 1009.4
20260506094331 74 166 1.0 1.0 0.00 0.00 0.00 97 1009.2
20260506093829 74 165 3.0 3.0 0.00 0.00 0.00 97 1009.1
20260506093326 74 149 0.0 0.0 0.00 0.00 0.00 97 1009.1
20260506092824 74 158 1.0 1.0 0.00 0.00 0.00 97 1009.1
20260506092321 74 156 3.0 5.0 0.00 0.00 0.00 97 1008.8
20260506091818 74 154 1.0 1.0 0.00 0.00 0.00 97 1009.0
20260506091316 74 148 3.0 3.0 0.00 0.00 0.00 97 1008.9
20260506090813 74 155 0.0 0.0 0.00 0.00 0.00 97 1009.0
20260506090310 75 163 1.0 1.0 0.00 0.00 0.00 97 1008.9
20260506085807 75 163 2.0 2.0 0.00 0.00 0.00 97 1008.8
20260506085305 75 151 0.0 0.0 0.00 0.00 0.00 97 1008.9
20260506084800 75 158 0.0 0.0 0.00 0.00 0.00 97 1008.7
20260506084256 75 149 0.0 1.0 0.00 0.00 0.00 96 1008.8
20260506083753 75 179 3.0 3.0 0.00 0.00 0.00 96 1009.1
20260506083251 75 170 2.0 3.0 0.00 0.00 0.00 96 1009.0
20260506082748 75 169 5.0 8.0 0.00 0.00 0.00 96 1008.9
20260506082243 75 156 1.0 1.0 0.00 0.00 0.00 96 1009.1
20260506081741 75 152 2.0 3.0 0.00 0.00 0.00 96 1008.8
20260506081238 75 158 2.0 2.0 0.00 0.00 0.00 96 1008.9
20260506080737 75 200 1.0 1.0 0.00 0.00 0.00 96 1009.1
20260506080233 75 166 4.0 6.0 0.00 0.00 0.00 96 1009.0
20260506073217 75 156 1.0 2.0 0.00 0.00 0.00 96 1009.3
20260506072714 75 159 1.0 1.0 0.00 0.00 0.00 96 1009.7
20260506072211 75 152 0.0 0.0 0.00 0.00 0.00 96 1009.4
20260506071708 75 162 1.0 2.0 0.00 0.00 0.00 96 1009.7
20260506071206 75 165 3.0 5.0 0.00 0.00 0.00 96 1009.4
20260506070703 75 153 0.0 1.0 0.00 0.00 0.00 96 1009.5
20260506070200 75 171 3.0 5.0 0.00 0.00 0.00 95 1009.5
20260506062137 75 165 4.0 6.0 0.00 0.00 0.00 95 1009.7
20260506061633 75 134 2.0 3.0 0.00 0.00 0.00 95 1009.5
20260506061131 75 148 1.0 1.0 0.00 0.00 0.00 95 1009.5
20260506060629 75 183 3.0 6.0 0.00 0.00 0.00 95 1009.5
20260506060126 75 191 2.0 3.0 0.00 0.00 0.00 95 1009.7
20260506051058 76 155 0.0 1.0 0.00 0.00 0.00 94 1009.8
20260506050555 76 165 4.0 5.0 0.00 0.00 0.00 93 1009.9
20260506045046 76 156 1.0 1.0 0.00 0.00 0.00 93 1009.5
20260506044544 76 182 4.0 7.0 0.00 0.00 0.00 93 1009.8
20260506044040 76 149 1.0 2.0 0.00 0.00 0.00 93 1010.0
20260506043537 76 159 3.0 6.0 0.00 0.00 0.00 93 1009.9
20260506043036 76 153 1.0 2.0 0.00 0.00 0.00 93 1009.8
20260506042535 76 180 1.0 2.0 0.00 0.00 0.00 93 1009.7
20260506042032 76 174 3.0 6.0 0.00 0.00 0.00 93 1009.5
20260506041531 76 161 3.0 3.0 0.00 0.00 0.00 93 1009.7
20260506041027 76 148 0.0 0.0 0.00 0.00 0.00 93 1009.7
20260506040525 76 149 2.0 2.0 0.00 0.00 0.00 93 1009.4
20260506040021 76 123 0.0 0.0 0.00 0.00 0.00 93 1009.4
20260506035518 76 153 1.0 2.0 0.00 0.00 0.00 93 1009.4
20260506035014 76 155 1.0 1.0 0.00 0.00 0.00 93 1009.3
20260506034512 77 169 1.0 2.0 0.00 0.00 0.00 93 1009.1
20260506034009 77 149 1.0 1.0 0.00 0.00 0.00 93 1009.3
20260506033506 77 161 1.0 1.0 0.00 0.00 0.00 93 1008.9
20260506033004 77 170 4.0 6.0 0.00 0.00 0.00 93 1009.0
20260506032501 77 167 2.0 2.0 0.00 0.00 0.00 92 1008.8
20260506031956 77 148 1.0 1.0 0.00 0.00 0.00 92 1008.9
20260506031455 77 147 0.0 0.0 0.00 0.00 0.00 92 1008.9
20260506030952 77 147 2.0 3.0 0.00 0.00 0.00 92 1008.8
20260506030450 77 155 0.0 0.0 0.00 0.00 0.00 92 1008.7
20260506025946 77 157 0.0 0.0 0.00 0.00 0.00 92 1008.8
20260506025443 77 162 3.0 5.0 0.00 0.00 0.00 92 1008.6
20260506024940 77 158 0.0 0.0 0.00 0.00 0.00 91 1008.4
20260506024437 77 180 1.0 5.0 0.00 0.00 0.00 91 1008.5
20260506023932 77 159 1.0 2.0 0.00 0.00 0.00 90 1008.3
20260506023429 77 146 0.0 0.0 0.00 0.00 0.00 90 1008.2
20260506022926 77 153 0.0 0.0 0.00 0.00 0.00 90 1008.1
20260506022424 77 158 0.0 0.0 0.00 0.00 0.00 89 1008.1
20260506021922 77 156 1.0 2.0 0.00 0.00 0.00 89 1007.9
20260506021419 78 163 0.0 0.0 0.00 0.00 0.00 89 1007.8
20260506020915 78 169 1.0 2.0 0.00 0.00 0.00 89 1007.8
20260506020414 78 152 1.0 2.0 0.00 0.00 0.00 88 1007.9
20260506015910 78 146 0.0 0.0 0.00 0.00 0.00 88 1007.7
20260506015408 78 165 1.0 2.0 0.00 0.00 0.00 88 1007.8
20260506014904 78 153 0.0 0.0 0.00 0.00 0.00 87 1007.6
20260506014401 78 156 0.0 0.0 0.00 0.00 0.00 87 1007.5
20260506013858 79 154 0.0 0.0 0.00 0.00 0.00 87 1007.6
20260506013356 79 152 0.0 0.0 0.00 0.00 0.00 86 1007.4
20260506012852 79 148 0.0 0.0 0.00 0.00 0.00 86 1007.5
20260506012349 79 152 0.0 0.0 0.00 0.00 0.00 86 1007.5
20260506011846 80 157 0.0 0.0 0.00 0.00 0.00 85 1007.4
20260506011343 80 151 0.0 0.0 0.00 0.00 0.00 85 1007.5
20260506010840 80 155 0.0 0.0 0.00 0.00 0.00 84 1007.8
20260506010338 80 149 0.0 0.0 0.00 0.00 0.00 84 1007.7
20260506005835 81 146 0.0 0.0 0.00 0.00 0.00 83 1007.5
20260506005331 81 158 0.0 0.0 0.00 0.00 0.00 83 1007.5
20260506004827 81 158 0.0 0.0 0.00 0.00 0.00 83 1007.4
20260506004325 81 158 0.0 0.0 0.00 0.00 0.00 82 1007.4
20260506003821 82 150 0.0 0.0 0.00 0.00 0.00 82 1007.3
20260506003318 82 152 0.0 0.0 0.00 0.00 0.00 81 1007.2
20260506002814 82 148 0.0 0.0 0.00 0.00 0.00 81 1007.4
20260506002311 82 156 0.0 0.0 0.00 0.00 0.00 80 1007.3
20260506001806 82 159 1.0 3.0 0.00 0.00 0.00 80 1007.3
20260506001304 82 152 0.0 0.0 0.00 0.00 0.00 80 1007.0
20260506000800 82 145 0.0 0.0 0.00 0.00 0.00 80 1007.3
20260506000258 82 164 2.0 5.0 0.00 0.00 0.00 80 1007.3
20260505235755 82 141 0.0 0.0 0.00 0.00 0.00 80 1007.4
20260505235253 83 154 0.0 0.0 0.00 0.00 0.00 79 1007.0
20260505234749 83 172 3.0 3.0 0.00 0.00 0.00 79 1007.0
20260505234247 83 172 1.0 5.0 0.00 0.00 0.00 78 1007.1
20260505233743 83 160 2.0 3.0 0.00 0.00 0.00 78 1007.1
20260505233241 83 153 0.0 0.0 0.00 0.00 0.00 78 1007.1
20260505232738 83 152 0.0 0.0 0.00 0.00 0.00 78 1007.1
20260505232236 83 153 0.0 0.0 0.00 0.00 0.00 78 1007.0
20260505231732 83 192 3.0 5.0 0.00 0.00 0.00 78 1007.0
20260505231231 83 151 1.0 2.0 0.00 0.00 0.00 77 1007.0
20260505230729 83 158 0.0 0.0 0.00 0.00 0.00 78 1007.1
20260505230225 83 146 0.0 0.0 0.00 0.00 0.00 77 1007.0
20260505225722 83 153 0.0 0.0 0.00 0.00 0.00 77 1006.8
20260505225219 83 146 0.0 0.0 0.00 0.00 0.00 78 1006.8
20260505224714 83 170 0.0 1.0 0.00 0.00 0.00 77 1006.9
20260505224212 83 159 0.0 0.0 0.00 0.00 0.00 77 1006.7
20260505223710 84 150 2.0 3.0 0.00 0.00 0.00 76 1006.9
20260505223205 84 144 2.0 2.0 0.00 0.00 0.00 76 1006.9
20260505222702 84 160 2.0 2.0 0.00 0.00 0.00 76 1006.7
20260505222158 84 151 1.0 2.0 0.00 0.00 0.00 75 1007.1
20260505221655 84 172 1.0 1.0 0.00 0.00 0.00 74 1006.9
20260505221152 84 168 0.0 0.0 0.00 0.00 0.00 76 1006.8
20260505220649 85 155 3.0 3.0 0.00 0.00 0.00 74 1006.9
20260505220147 85 149 5.0 6.0 0.00 0.00 0.00 73 1007.0
20260505215644 84 136 0.0 1.0 0.00 0.00 0.00 75 1007.1
20260505215142 84 182 3.0 5.0 0.00 0.00 0.00 75 1007.0